Stations météo

réclame
Mon MeteoGroup
Berus, Allemagne (10704): Température de l'air & dewpoint: 15.09.2018 04:00:00 - 21.09.2018 04:00:00 (CEST)Berus, Allemagne (10704): Température de l'air 5cm & Température de l'air -5cm: 15.09.2018 04:00:00 - 21.09.2018 04:00:00 (CEST)Berus, Allemagne (10704): Température de l'air -20cm & Température de l'air -100cm: 15.09.2018 04:00:00 - 21.09.2018 04:00:00 (CEST)Berus, Allemagne (10704): Vitesse du vent & gusts: 15.09.2018 04:00:00 - 21.09.2018 04:00:00 (CEST)Berus, Allemagne (10704): Direction du vent: 15.09.2018 04:00:00 - 21.09.2018 04:00:00 (CEST)Berus, Allemagne (10704): reduced air pressure: 15.09.2018 04:00:00 - 21.09.2018 04:00:00 (CEST)Berus, Allemagne (10704): visibility: 15.09.2018 04:00:00 - 21.09.2018 04:00:00 (CEST)Berus, Allemagne (10704): Ensoleillement: 15.09.2018 04:00:00 - 21.09.2018 04:00:00 (CEST)Berus, Allemagne (10704): Quantités de précipitations: 15.09.2018 04:00:00 - 21.09.2018 04:00:00 (CEST)
Date & Time tt [°C] td [°C] tt 5cm [°C] tt -5cm [°C] tt -20cm [°C] tt -100cm [°C] ff [km/h] ff [knt] fx [km/h] fx [knt] dd ppp [hPa] vv [km] sd [min] rr [mm]
21.09.2018 04:00:00 17,7 12,5 16,4 19,7 21,7 19,3 17 9 22 12 SSW 1011,4 35 0 0,0
21.09.2018 03:00:00 17,8 12,7 16,4 20,1 21,9 19,3 16 9 22 12 SSW 1012,0 35 0 0,0
21.09.2018 02:00:00 17,7 12,9 16,2 20,5 22,1 19,3 15 8 25 13 SSW 1012,7 28 0 0,0
21.09.2018 01:00:00 18,8 13,3 17,6 20,9 22,3 19,3 16 8 23 12 SSW 1012,8 30 0 0,0
21.09.2018 00:00:00 19,5 13,5 18,1 21,3 22,5 19,3 16 9 21 11 SSW 1013,3 33 0 0,0
20.09.2018 23:00:00 19,8 13,4 18,0 21,9 22,8 19,3 14 8 18 10 SSW 1013,9 34 0 0,0
20.09.2018 22:00:00 20,7 13,3 18,5 22,6 23,0 19,3 15 8 20 11 SSW 1014,3 39 0 0,0
20.09.2018 21:00:00 19,6 13,3 16,7 23,5 23,1 19,3 12 7 16 8 SSW 1014,7 35 0 0,0
20.09.2018 20:00:00 20,6 12,7 16,3 24,8 23,1 19,2 8 4 13 7 SW 1015,1 38 2 0,0
20.09.2018 19:00:00 23,9 12,7 22,6 26,2 23,0 19,2 10 5 23 12 SW 1015,1 48 60 0,0
20.09.2018 18:00:00 25,1 12,1 26,7 27,3 22,7 19,2 16 9 31 17 SSW 1015,6 37 60 0,0
20.09.2018 17:00:00 25,9 11,0 29,2 27,7 22,3 19,2 21 11 33 18 SW 1016,2 21 60 0,0
20.09.2018 16:00:00 26,4 12,2 30,9 27,3 21,8 19,2 15 8 38 20 WSW 1016,7 28 60 0,0
20.09.2018 15:00:00 25,6 11,8 30,2 26,4 21,3 19,2 18 10 32 17 SW 1017,5 31 60 0,0
20.09.2018 14:00:00 24,5 11,5 28,8 25,0 20,9 19,2 23 12 37 20 SW 1018,3 31 60 0,0
20.09.2018 13:00:00 23,7 12,0 28,6 23,4 20,5 19,2 19 10 37 20 WSW 1018,9 26 60 0,0
20.09.2018 12:00:00 23,1 12,4 26,8 21,6 20,3 19,2 22 12 35 19 WSW 1019,3 17 60 0,0
20.09.2018 11:00:00 21,5 13,1 24,9 19,9 20,3 19,2 12 6 17 9 SW 1019,8 27 60 0,0
20.09.2018 10:00:00 19,9 13,1 22,4 18,5 20,4 19,2 8 5 11 6 SW 1019,9 28 60 0,0
20.09.2018 09:00:00 18,1 12,6 18,9 18,0 20,6 19,2 8 4 12 7 WSW 1020,2 31 60 0,0
20.09.2018 08:00:00 15,7 12,1 13,2 18,2 20,9 19,2 9 5 13 7 WSW 1020,3 30 4 0,0
20.09.2018 07:00:00 15,5 12,2 12,9 18,5 21,1 19,2 10 6 13 7 SW 1020,2 29 0 0,0
20.09.2018 06:00:00 16,1 12,4 12,8 19,0 21,3 19,2 8 4 8 5 WSW 1020,3 30 0 0,0
20.09.2018 05:00:00 16,8 12,9 12,7 19,4 21,6 19,2 6 4 8 4 SW 1020,1 32 0 0,0
20.09.2018 04:00:00 16,9 13,2 13,2 19,9 21,8 19,2 6 3 7 4 WSW 1019,9 30 0 0,0
20.09.2018 03:00:00 18,1 13,2 12,7 20,5 22,1 19,2 4 2 11 6 W 1019,9 33 0 0,0
20.09.2018 02:00:00 18,8 13,3 16,4 21,0 22,3 19,2 7 4 14 8 NW 1020,0 34 0 0,0
20.09.2018 01:00:00 19,1 13,5 16,9 21,6 22,5 19,2 9 5 13 7 WNW 1020,1 33 0 0,0
20.09.2018 00:00:00 20,1 13,8 18,1 22,2 22,8 19,2 8 5 20 11 WNW 1019,9 36 0 0,0
19.09.2018 23:00:00 20,7 14,0 19,1 22,9 23,0 19,2 12 6 23 12 WNW 1019,6 39 0 0,0
19.09.2018 22:00:00 21,7 14,1 20,2 23,7 23,1 19,2 13 7 24 13 W 1019,0 44 0 0,0
19.09.2018 21:00:00 22,3 14,3 20,5 24,6 23,2 19,2 13 7 26 14 W 1018,7 39 0 0,0
19.09.2018 20:00:00 23,3 14,3 22,0 25,8 23,2 19,2 15 8 24 13 W 1018,3 46 15 0,0
19.09.2018 19:00:00 25,1 13,9 24,1 27,0 23,1 19,1 14 8 34 18 WSW 1017,8 50 60 0,0
19.09.2018 18:00:00 26,4 13,8 27,6 27,8 22,8 19,1 22 12 36 20 WSW 1017,5 43 55 0,0
19.09.2018 17:00:00 27,3 13,5 29,9 28,0 22,4 19,1 21 11 39 21 SW 1017,5 41 49 0,0
19.09.2018 16:00:00 28,0 13,5 32,1 27,7 21,9 19,1 16 9 41 22 WSW 1017,7 43 54 0,0
19.09.2018 15:00:00 27,4 12,9 31,0 26,9 21,4 19,1 22 12 39 21 WSW 1018,0 53 60 0,0
19.09.2018 14:00:00 27,1 12,6 30,8 25,6 20,9 19,1 23 12 37 20 SW 1018,4 50 60 0,0
19.09.2018 13:00:00 26,0 13,4 30,2 23,9 20,5 19,1 17 9 27 15 SSW 1018,8 30 60 0,0
19.09.2018 12:00:00 23,9 14,5 28,4 22,0 20,3 19,1 7 4 21 11 S 1019,6 36 60 0,0
19.09.2018 11:00:00 21,9 14,3 25,3 20,2 20,2 19,1 10 5 14 7 SSW 1019,7 29 60 0,0
19.09.2018 10:00:00 20,3 13,8 23,2 18,9 20,3 19,1 0 0 5 3 SW 1019,4 38 60 0,0
19.09.2018 09:00:00 18,8 13,7 18,8 18,4 20,5 19,1 3 2 6 3 WSW 1019,6 40 60 0,0
19.09.2018 08:00:00 16,6 13,2 13,4 18,5 20,7 19,1 4 2 8 5 SE 1019,4 39 10 0,0
19.09.2018 07:00:00 17,0 13,1 13,9 18,8 20,9 19,1 7 4 11 6 WSW 1019,1 38 0 0,0
19.09.2018 06:00:00 17,4 13,0 13,5 19,1 21,1 19,1 7 4 9 5 WSW 1018,7 43 0 0,0
19.09.2018 05:00:00 17,7 13,0 13,3 19,5 21,3 19,1 6 3 10 6 WSW 1018,7 55 0 0,0
19.09.2018 04:00:00 17,4 13,0 15,1 20,0 21,6 19,1 9 5 11 6 WSW 1018,7 44 0 0,0
19.09.2018 03:00:00 17,7 12,8 14,7 20,5 21,8 19,1 9 5 10 5 WSW 1018,4 52 0 0,0
19.09.2018 02:00:00 17,7 12,5 15,0 21,1 22,0 19,1 8 5 10 5 SW 1018,4 49 0 0,0
19.09.2018 01:00:00 19,7 12,7 17,7 21,6 22,2 19,1 6 3 18 10 SW 1017,6 51 0 0,0
19.09.2018 00:00:00 20,6 12,6 19,3 22,1 22,4 19,1 10 5 22 12 W 1017,3 52 0 0,0
18.09.2018 23:00:00 21,0 12,2 19,6 22,7 22,6 19,1 14 8 24 13 W 1017,0 69 0 0,0
18.09.2018 22:00:00 22,0 11,9 20,5 23,5 22,7 19,1 16 8 29 15 WNW 1016,6 70 0 0,0
18.09.2018 21:00:00 23,2 11,3 21,7 24,5 22,8 19,1 18 10 29 16 WNW 1016,0 70 0 0,0
18.09.2018 20:00:00 24,5 11,5 22,8 25,8 22,7 19,1 13 7 23 12 W 1015,3 62 15 0,0
18.09.2018 19:00:00 26,8 12,6 25,5 27,1 22,5 19,1 10 6 22 12 WSW 1014,2 53 60 0,0
18.09.2018 18:00:00 28,3 12,1 30,3 27,7 22,1 19,1 10 5 30 16 WSW 1014,0 44 59 0,0
18.09.2018 17:00:00 28,8 13,8 32,2 27,6 21,7 19,1 15 8 39 21 SW 1013,7 42 55 0,0
18.09.2018 16:00:00 28,7 14,4 32,4 27,0 21,2 19,1 22 12 38 20 SW 1013,7 29 60 0,0
18.09.2018 15:00:00 26,6 15,2 28,7 26,3 20,6 19,1 18 10 35 19 SSW 1014,6 40 27 0,0
18.09.2018 14:00:00 27,4 15,0 31,2 25,1 20,1 19,1 17 9 36 20 SSW 1014,6 35 54 0,0
18.09.2018 13:00:00 26,8 14,6 30,9 23,1 19,7 19,1 17 9 31 17 SW 1015,1 35 60 0,0
18.09.2018 12:00:00 24,7 14,2 28,8 21,0 19,5 19,1 12 6 19 11 SSW 1015,5 35 60 0,0
18.09.2018 11:00:00 21,3 13,4 25,1 19,1 19,4 19,1 10 6 16 9 SSW 1015,9 25 60 0,0
18.09.2018 10:00:00 18,1 12,2 20,6 17,8 19,5 19,1 13 7 17 9 S 1016,0 27 59 0,0
18.09.2018 09:00:00 16,1 11,2 16,3 17,3 19,7 19,1 9 5 15 8 S 1015,9 26 56 0,0
18.09.2018 08:00:00 15,4 10,3 14,2 17,4 19,9 19,1 10 6 14 8 SSE 1015,7 33 12 0,0
18.09.2018 07:00:00 15,3 9,8 13,4 17,7 20,1 19,1 10 5 13 7 SE 1015,5 37 0 0,0
18.09.2018 06:00:00 16,2 9,3 13,6 18,0 20,3 19,1 7 4 13 7 ESE 1015,5 40 0 0,0
18.09.2018 05:00:00 16,3 9,5 13,7 18,4 20,5 19,1 9 5 11 6 SE 1015,5 38 0 0,0
18.09.2018 04:00:00 17,2 9,8 13,5 18,8 20,8 19,1 6 4 11 6 E 1015,6 36 0 0,0
18.09.2018 03:00:00 18,1 9,9 14,6 19,2 21,0 19,1 6 3 9 5 ESE 1015,6 46 0 0,0
18.09.2018 02:00:00 18,3 10,2 15,2 19,8 21,2 19,2 5 3 13 7 SE 1015,9 49 0 0,0
18.09.2018 01:00:00 19,1 10,2 16,8 20,3 21,5 19,2 9 5 13 7 S 1016,0 44 0 0,0
18.09.2018 00:00:00 19,7 10,4 15,5 20,9 21,7 19,2 4 2 13 7 ESE 1016,1 42 0 0,0
17.09.2018 23:00:00 20,6 10,5 17,2 21,7 21,9 19,2 6 3 11 6 E 1016,1 51 0 0,0
17.09.2018 22:00:00 21,3 10,7 18,9 22,5 22,1 19,2 6 4 18 10 ESE 1016,1 48 0 0,0
17.09.2018 21:00:00 22,6 9,6 20,6 23,6 22,2 19,2 8 4 16 9 ESE 1016,0 70 0 0,0
17.09.2018 20:00:00 23,4 8,7 18,7 25,0 22,2 19,2 5 3 9 5 ESE 1015,8 49 24 0,0
17.09.2018 19:00:00 24,9 8,1 22,4 26,6 21,9 19,1 7 4 13 7 S 1015,8 70 60 0,0
17.09.2018 18:00:00 26,0 6,8 27,4 27,5 21,5 19,1 10 5 24 13 S 1016,0 70 60 0,0
17.09.2018 17:00:00 26,5 5,5 29,5 27,6 21,0 19,1 11 6 22 12 SSW 1016,5 69 60 0,0
17.09.2018 16:00:00 26,8 6,8 31,4 26,9 20,4 19,1 14 8 26 14 SSW 1017,2 58 60 0,0
17.09.2018 15:00:00 26,4 7,9 30,7 25,8 19,8 19,2 13 7 24 13 S 1017,8 44 60 0,0
17.09.2018 14:00:00 25,6 9,1 29,7 24,0 19,2 19,2 11 6 22 12 S 1018,5 44 60 0,0
17.09.2018 13:00:00 22,8 9,7 28,7 21,9 18,8 19,2 5 3 13 7 SSE 1019,6 33 60 0,0
17.09.2018 12:00:00 20,2 10,4 25,1 19,8 18,5 19,2 5 3 10 5 SE 1020,1 45 60 0,0
17.09.2018 11:00:00 16,9 9,2 24,8 17,7 18,5 19,2 5 3 8 4 ENE 1020,9 21 60 0,0
17.09.2018 10:00:00 14,3 9,6 20,6 16,2 18,6 19,2 5 3 8 5 NE 1021,1 13 60 0,0
17.09.2018 09:00:00 13,6 10,3 14,6 15,6 18,8 19,2 4 2 7 4 SSE 1021,3 12 60 0,0
17.09.2018 08:00:00 11,2 9,2 9,1 15,7 19,0 19,2 6 3 9 5 NNE 1021,7 11 17 0,0
17.09.2018 07:00:00 11,8 10,0 8,8 16,0 19,3 19,2 6 3 8 4 E 1021,3 11 0 0,0
17.09.2018 06:00:00 12,4 10,3 8,8 16,4 19,5 19,2 6 4 8 4 E 1021,1 10 0 0,0
17.09.2018 05:00:00 13,3 9,4 8,7 16,9 19,8 19,2 4 2 7 4 ESE 1021,0 19 0 0,0
17.09.2018 04:00:00 14,4 9,5 9,8 17,4 20,0 19,2 5 3 8 5 ENE 1020,7 15 0 0,0
17.09.2018 03:00:00 14,9 9,5 10,4 17,9 20,3 19,2 5 3 8 4 NE 1020,7 22 0 0,0
17.09.2018 02:00:00 15,7 8,9 10,7 18,4 20,6 19,2 2 1 8 4 NE 1020,7 47 0 0,0
17.09.2018 01:00:00 16,5 8,2 10,2 19,0 20,8 19,2 5 3 6 4 S 1020,8 50 0 0,0
17.09.2018 00:00:00 17,8 8,0 10,9 19,7 21,1 19,2 5 3 10 5 SSW 1020,6 67 0 0,0
16.09.2018 23:00:00 17,8 7,9 13,0 20,5 21,3 19,2 6 3 8 4 NE 1020,8 67 0 0,0
16.09.2018 22:00:00 20,1 7,6 13,1 21,5 21,5 19,2 3 2 7 4 WNW 1020,3 70 0 0,0
16.09.2018 21:00:00 19,8 7,8 14,7 22,6 21,7 19,3 5 3 14 7 WNW 1020,2 62 0 0,0
16.09.2018 20:00:00 19,3 7,7 16,6 24,2 21,6 19,2 10 5 13 7 W 1020,0 64 7 0,0
16.09.2018 19:00:00 22,2 5,8 20,8 25,7 21,4 19,2 10 5 16 8 SSW 1019,1 70 49 0,0
16.09.2018 18:00:00 23,4 6,4 24,6 26,7 21,0 19,2 7 4 16 9 SSE 1018,9 70 60 0,0
16.09.2018 17:00:00 23,9 6,3 28,2 26,8 20,4 19,2 8 5 19 10 SSW 1019,0 28 60 0,0
16.09.2018 16:00:00 23,9 6,7 29,3 26,1 19,8 19,2 8 4 19 11 SSE 1019,4 56 60 0,0
16.09.2018 15:00:00 24,1 6,3 29,0 24,9 19,2 19,2 10 5 20 11 SSE 1019,8 33 60 0,0
16.09.2018 14:00:00 22,2 8,5 26,6 23,1 18,6 19,2 11 6 20 11 SSE 1020,7 32 60 0,0
16.09.2018 13:00:00 20,4 7,8 27,7 20,9 18,2 19,3 8 4 19 10 E 1021,4 46 60 0,0
16.09.2018 12:00:00 18,7 7,8 23,3 18,6 18,0 19,3 7 4 18 10 ENE 1022,4 36 60 0,0
16.09.2018 11:00:00 16,4 7,6 22,0 16,6 17,9 19,3 9 5 19 10 ENE 1023,0 30 60 0,0
16.09.2018 10:00:00 13,8 7,5 17,9 15,3 18,1 19,3 13 7 20 11 NE 1023,4 20 60 0,0
16.09.2018 09:00:00 11,9 7,2 13,9 14,7 18,3 19,3 16 9 21 12 NE 1023,3 16 60 0,0
16.09.2018 08:00:00 10,2 7,0 8,8 14,8 18,5 19,3 16 9 19 10 NNE 1023,6 31 19 0,0
16.09.2018 07:00:00 9,9 6,8 8,1 15,1 18,7 19,3 14 8 18 10 NNE 1023,6 38 0 0,0
16.09.2018 06:00:00 10,2 6,9 8,2 15,5 19,0 19,3 15 8 16 9 NNE 1024,1 34 0 0,0
16.09.2018 05:00:00 10,6 6,9 8,5 15,9 19,2 19,3 14 8 16 9 NNE 1024,4 38 0 0,0
16.09.2018 04:00:00 10,7 6,9 8,8 16,3 19,5 19,3 14 8 17 9 NNE 1024,6 24 0 0,0
16.09.2018 03:00:00 11,5 7,1 9,2 16,7 19,8 19,3 13 7 16 8 NNE 1024,9 35 0 0,0
16.09.2018 02:00:00 12,6 7,4 10,0 17,2 20,0 19,3 11 6 14 8 NNE 1025,3 28 0 0,0
16.09.2018 01:00:00 13,2 7,1 10,0 17,8 20,3 19,3 9 5 14 7 NNE 1025,7 70 0 0,0
16.09.2018 00:00:00 13,1 7,3 10,4 18,4 20,6 19,3 11 6 13 7 NNE 1025,8 64 0 0,0
15.09.2018 23:00:00 14,4 7,2 9,7 19,1 20,9 19,3 9 5 11 6 NNE 1025,6 70 0 0,0
15.09.2018 22:00:00 14,4 7,3 9,7 20,0 21,1 19,3 8 5 12 7 NNE 1025,7 70 0 0,0
15.09.2018 21:00:00 15,0 7,1 11,1 21,1 21,3 19,3 9 5 14 8 N 1025,3 70 0 0,0
15.09.2018 20:00:00 16,0 7,4 12,5 22,5 21,4 19,3 8 5 14 7 N 1024,8 70 32 0,0
15.09.2018 19:00:00 17,1 6,9 15,6 24,0 21,3 19,3 9 5 17 9 N 1024,3 70 39 0,0
15.09.2018 18:00:00 17,8 7,1 19,7 25,3 21,0 19,3 8 5 20 11 NNW 1024,4 70 24 0,0
15.09.2018 17:00:00 19,7 6,7 27,0 25,4 20,6 19,3 9 5 20 11 N 1024,2 59 54 0,0
15.09.2018 16:00:00 18,9 6,7 24,1 24,6 20,1 19,3 8 5 21 11 N 1024,4 70 41 0,0
15.09.2018 15:00:00 17,7 7,3 21,2 24,1 19,6 19,3 9 5 25 13 N 1024,9 70 35 0,0
15.09.2018 14:00:00 18,5 8,0 23,0 22,9 19,2 19,3 9 5 26 14 W 1025,3 70 40 0,0
15.09.2018 13:00:00 17,8 7,9 24,0 21,4 18,8 19,3 9 5 29 15 NW 1025,4 37 57 0,0
15.09.2018 12:00:00 17,0 7,6 23,0 19,3 18,5 19,3 9 5 18 10 W 1025,5 44 60 0,0
15.09.2018 11:00:00 15,8 7,6 20,4 17,5 18,5 19,3 9 5 16 9 NW 1025,4 27 60 0,0
15.09.2018 10:00:00 14,0 8,2 18,8 16,2 18,6 19,3 7 4 16 9 NW 1025,4 29 60 0,0
15.09.2018 09:00:00 12,1 8,0 13,7 15,9 18,7 19,4 4 2 16 9 NW 1025,2 27 24 0,0
15.09.2018 08:00:00 10,9 7,5 10,8 15,9 18,9 19,4 11 6 23 12 NW 1024,9 22 0 0,0
15.09.2018 07:00:00 11,5 7,6 11,2 15,9 19,1 19,4 13 7 22 12 NW 1024,2 21 0 0,0
15.09.2018 06:00:00 12,3 7,4 11,4 16,0 19,4 19,4 13 7 27 15 NW 1023,4 23 0 0,0
15.09.2018 05:00:00 10,8 7,2 9,7 16,4 19,6 19,4 17 9 27 15 WNW 1023,9 18 0 0,0
15.09.2018 04:00:00 11,9 7,4 10,4 16,8 19,9 19,4 16 9 26 14 NW 1023,3 24 0 0,0

tt = Température de l'air
td = dewpoint
tt 5cm = Température de l'air 5cm
tt -5cm = Température de l'air -5cm
tt -20cm = Température de l'air -20cm
tt -100cm = Température de l'air -100cm
ff = Vitesse du vent
fx = gusts
dd = Direction du vent
ppp = reduced air pressure
vv = visibility
sd = Ensoleillement
rr = Quantités de précipitations

stations d'obs. à proximité